Weather Roundup
Issued by NWS

Home | Current Version | Previous Version | Graphics & Text | Print | Product List | Glossary Off
Versions: 1 2 3 4 5 6 7 8 9 10 11 12 13 14 15 16 17 18 19 20 21 22 23 24 25 26 27 28 29 30 31 32 33 34 35 36 37 38 39 40 41 42 43 44 45 46 47 48 49 50

000
NZUS93 KARX 292359
HRRWXR

CURRENT HOURLY OBSERVATIONS ACROSS
MUCH OF THE UPPER MISSISSIPPI VALLEY
NATIONAL WEATHER SERVICE LA CROSSE WI
700 PM CDT SUN MAR 29 2015


...SOUTHEAST MINNESOTA...


CITY           SKY/WX    TMP DP  RH WIND       PRES   REMARKS
ROCHESTER      CLEAR     45  29  53 NW28G35   29.85R
ROCHESTER/MAYO FAIR      47  29  49 W25G37    29.84R
WINONA         CLEAR     52  30  43 NW15      29.81R
AUSTIN         CLEAR     48  34  57 NW18G26   29.88R
ALBERT LEA     CLEAR     52  30  43 NW17G28   29.90R
DODGE CENTER   CLEAR     46  28  49 NW23G29   29.87R
PRESTON        CLEAR     45  29  53 NW26G35   29.85R
OWATONNA       CLEAR     48  30  49 NW22G31   29.89R
FARIBAULT      CLEAR     48  30  49 W14G24    29.89R
$$

...ELSEWHERE IN MINNESOTA...


CITY           SKY/WX    TMP DP  RH WIND       PRES   REMARKS
MINNEAPOLIS    PTCLDY    50  26  39 NW22G32   29.86R
INTNL FALLS    PTCLDY    43  26  51 NW12      29.77R
DULUTH         PTCLDY    44  25  47 NW18G28   29.74R
RED WING       CLEAR     52  25  35 NW16G26   29.82R
REDWOOD FALLS  PTCLDY    54  25  32 NW17G29   29.95R
MANKATO        CLEAR     52  30  43 NW18G30   29.92R
WORTHINGTON    CLEAR     54  19  26 NW24G33   30.00R
FAIRMONT       CLEAR     54  21  28 NW25G33   29.94R
$$

...SOUTHWEST WISCONSIN...


CITY           SKY/WX    TMP DP  RH WIND       PRES   REMARKS
LA CROSSE      PTCLDY    52  29  41 NW24      29.78R
PRAIRIE DU CHI CLEAR     47  32  55 W13       29.82R
BOSCOBEL       PTCLDY    48  35  60 W9        29.81R
LONE ROCK      NOT AVBL
PLATTEVILLE    CLEAR     46  37  70 W13       29.82R
FORT MC COY    PTCLDY    46  36  69 W6        29.77R
CAMP DOUGLAS   PTCLDY    44  41  89 NW6       29.76R
VIROQUA        CLOUDY    46  35  66 W15G22    29.77R
WIS DELLS      NOT AVBL
$$

...ELSEWHERE IN WISCONSIN...


CITY           SKY/WX    TMP DP  RH WIND       PRES   REMARKS
MILWAUKEE      MOCLDY    45  36  70 W22G40    29.71R
MADISON        MOCLDY    43  37  79 W10       29.77R
GREEN BAY      CLOUDY    40  34  79 W18G30    29.64R WCI  31
EAU CLAIRE     CLEAR     48  28  46 NW15G23   29.77R
BLACK RVR FLS  FAIR      49  31  51 NW10G20   29.75R
MEDFORD        CLOUDY    37  31  78 NW13G21   29.71R WCI  29
WAUSAU         CLOUDY    39  33  79 NW22G33   29.68R WCI  29
WIS RAPIDS     CLOUDY    41  32  70 NW21G40   29.75R
MARSHFIELD     CLOUDY    40  33  76 NW22G28   29.74R WCI  30
RICE LAKE      CLEAR     47  28  47 NW12G21   29.76R
$$

...NORTHEAST IOWA...


CITY           SKY/WX    TMP DP  RH WIND       PRES   REMARKS
DECORAH        CLEAR     46  32  57 NW13G28   29.83R
MASON CITY     CLEAR     51  31  46 NW18G32   29.92R
CHARLES CITY   CLEAR     52  34  50 NW26G39   29.88R
OELWEIN        CLEAR     52  30  43 NW28G36   29.87R
$$

...ELSEWHERE IN IOWA...


CITY           SKY/WX    TMP DP  RH WIND       PRES   REMARKS
DES MOINES     CLEAR     60  19  20 NW17G26   29.98R
IOWA CITY      CLEAR     56  29  35 NW17G32   29.91R
FORT DODGE     CLEAR     55  27  33 NW10G18   29.98R
$$

...NORTHERN ILLINOIS...


CITY           SKY/WX    TMP DP  RH WIND       PRES   REMARKS
CHICAGO-OHARE  LGT RAIN  47  35  63 SW14G24   29.75R
CHICAGO-MIDWAY CLOUDY    49  35  58 SW17G29   29.76F
MOLINE         CLEAR     54  36  50 NW20G30   29.87R
ROCKFORD       CLOUDY    46  35  65 NW22G32   29.84R
PEORIA         CLOUDY    56  40  55 W14       29.87R
$$

NOTE: "FAIR" INDICATES FEW OR NO CLOUDS BELOW 12,000 FEET WITH NO
SIGNIFICANT WEATHER AND/OR OBSTRUCTIONS TO VISIBILITY. WIND
SPEEDS ARE IN MILES-PER-HOUR.



USA.gov is the U.S. government's official web portal to all federal, state and local government web resources and services.